Mobile, AL

6:16 PM CST on February 06, 2016 (GMT -0600)
Mobile Downtown

Weather History for KBFM - November, 2012

Change the Weather History Date:

Sunday, November 4, 2012

  Actual Average Record
Temperature  
Mean Temperature 68 °F -  
Max Temperature 79 °F 71 °F 82 °F (2003)
Min Temperature 59 °F 52 °F 35 °F (1999)
Cooling Degree Days 4    
Growing Degree Days 18 (Base 50)    
Moisture  
Dew Point 62 °F    
Average Humidity 83    
Maximum Humidity 94    
Minimum Humidity 50    
Precipitation  
Precipitation 0.03 in - - ()
Sea Level Pressure  
Sea Level Pressure 30.09 in    
Wind  
Wind Speed 5 mph (WNW)    
Max Wind Speed 14 mph    
Max Gust Speed -    
Visibility 8 miles    
Events Rain    
Averages and records for this station are not official NWS values.
T = Trace of Precipitation, MM = Missing Value Source: NWS Daily Summary

Daily Weather History Graph

Daily Weather History Graph

Search for Another Location

Airport or City:

Trip Planner

Search our weather history database for the weather conditions in past years. The results will help you decide how hot, cold, wet, or windy it might be!

Date:

Astronomy

Nov. 04, 2012 Rise Set
Actual Time 6:09 AM CST 5:01 PM CST
Civil Twilight 5:44 AM CST 5:26 PM CST
Nautical Twilight 5:16 AM CST 5:55 PM CST
Astronomical Twilight 4:47 AM CST 6:23 PM CST
Moon 9:42 PM CST (11/4) 10:49 AM CST (11/4)
Length of Visible Light 11h 41m
Length of Day
10h 51m
Waning Gibbous, 72% of the Moon is Illuminated
Nov 4
Waning Gibbous
Nov 6
Last Quarter
Nov 13
New
Nov 20
First Quarter
Nov 28
Full

Hourly Weather History & Observations

Time (CST) Temp. Dew Point Humidity Pressure Visibility Wind Dir Wind Speed Gust Speed Precip Events Conditions
12:53 AM 68.0 °F 64.9 °F 90% 30.09 in 10.0 mi WSW 5.8 mph - N/A   Clear
1:53 AM 68.0 °F 64.9 °F 90% 30.09 in 10.0 mi West 4.6 mph - 0.01 in   Clear
1:53 AM 68.0 °F 64.9 °F 90% 30.08 in 10.0 mi West 3.5 mph - N/A   Clear
2:53 AM 66.9 °F 64.0 °F 90% 30.08 in 8.0 mi West 3.5 mph - N/A   Clear
3:12 AM 66.2 °F 64.4 °F 94% 30.08 in 4.0 mi West 3.5 mph - N/A   Scattered Clouds
3:16 AM 66.2 °F 64.4 °F 94% 30.08 in 2.5 mi West 3.5 mph - N/A   Mostly Cloudy
3:26 AM 66.2 °F 64.4 °F 94% 30.08 in 1.2 mi West 5.8 mph - N/A   Mostly Cloudy
3:37 AM 66.2 °F 64.4 °F 94% 30.08 in 3.0 mi West 4.6 mph - N/A   Overcast
3:53 AM 66.0 °F 64.0 °F 93% 30.08 in 8.0 mi West 4.6 mph - N/A   Scattered Clouds
4:53 AM 66.0 °F 64.0 °F 93% 30.10 in 5.0 mi West 4.6 mph - N/A   Scattered Clouds
5:02 AM 66.2 °F 64.4 °F 94% 30.10 in 5.0 mi West 6.9 mph - N/A   Mostly Cloudy
5:24 AM 66.2 °F 62.6 °F 88% 30.10 in 6.0 mi West 4.6 mph - N/A   Scattered Clouds
5:53 AM 64.9 °F 63.0 °F 93% 30.11 in 7.0 mi West 5.8 mph - 0.01 in   Clear
6:51 AM 66.2 °F 64.4 °F 94% 30.13 in 4.0 mi Calm Calm - N/A   Scattered Clouds
6:53 AM 66.0 °F 64.0 °F 93% 30.13 in 4.0 mi West 3.5 mph - N/A   Scattered Clouds
7:53 AM 66.9 °F 64.9 °F 93% 30.14 in 6.0 mi NW 8.1 mph - N/A   Overcast
8:53 AM 72.0 °F 64.0 °F 76% 30.13 in 10.0 mi NNW 8.1 mph - N/A   Partly Cloudy
9:53 AM 75.0 °F 61.0 °F 62% 30.12 in 10.0 mi NNW 5.8 mph - N/A   Scattered Clouds
10:53 AM 75.9 °F 61.0 °F 60% 30.11 in 10.0 mi NE 6.9 mph - N/A   Scattered Clouds
11:53 AM 78.1 °F 60.1 °F 54% 30.08 in 10.0 mi ENE 5.8 mph - 0.00 in   Partly Cloudy
12:53 PM 78.1 °F 57.9 °F 50% 30.06 in 10.0 mi WNW 6.9 mph - N/A   Scattered Clouds
1:53 PM 75.0 °F 55.9 °F 51% 30.06 in 10.0 mi NW 13.8 mph - N/A   Overcast
2:53 PM 68.0 °F 61.0 °F 78% 30.02 in 10.0 mi South 8.1 mph - 0.01 in Rain Light Rain
3:53 PM 69.1 °F 61.0 °F 75% 30.06 in 10.0 mi NNW 6.9 mph - 0.00 in   Mostly Cloudy
4:53 PM 66.9 °F 59.0 °F 76% 30.06 in 10.0 mi NW 6.9 mph - N/A   Clear
5:53 PM 63.0 °F 57.9 °F 84% 30.06 in 10.0 mi NNW 3.5 mph - N/A   Clear
6:53 PM 64.0 °F 59.0 °F 84% 30.06 in 10.0 mi NW 4.6 mph - N/A   Clear
7:53 PM 63.0 °F 57.9 °F 84% 30.07 in 10.0 mi WNW 3.5 mph - N/A   Clear
8:53 PM 62.1 °F 57.9 °F 86% 30.09 in 10.0 mi NW 4.6 mph - N/A   Clear
9:53 PM 59.0 °F 55.9 °F 90% 30.09 in 10.0 mi NW 6.9 mph - N/A   Clear
10:53 PM 61.0 °F 57.0 °F 87% 30.09 in 10.0 mi NNW 9.2 mph - N/A   Clear